Location: Saint-Hippolyte
(43.6394°N, 4.7559°E)
Time: 14:40:41
(UTC+00:00)

Cosmos 2369 Rocket - Pass Details

Date: 24 October 2020
Orbit: 827 x 854 km, 71.0° (Epoch: 23 November)

Event Time Altitude Azimuth Distance (km) Brightness Sun altitude
Rises 17:00:03 0° 231° (SW) 3,386 6.7 -3.9°
Reaches altitude 10° 17:02:42 10° 240° (WSW) 2,460 6.2 -4.3°
Maximum altitude 17:07:49 34° 305° (NW) 1,365 3.8 -5.2°
Drops below altitude 10° 17:12:59 10° 10° (N) 2,487 4.4 -6.1°
Sets 17:15:41 0° 19° (NNE) 3,429 5.1 -6.6°
